EW5546 Weather Reports


time (UTC)temp
F
wind
direction
speed
knots
gust
knots
rain 1hr
in
rain 24hr
in
rain mn
in
humidity
%
barometer
mb
20260506182036 71 0.0 0.0 0.00 0.00 0.00 35 1003.9
20260506181044 72 0.0 0.0 0.00 0.00 0.00 35 1003.9
20260506180045 72 0.0 0.0 0.00 0.00 0.00 34 1003.9
20260506175025 72 0.0 0.0 0.00 0.00 0.00 34 1003.9
20260506174031 72 0.0 0.0 0.00 0.00 0.00 34 1003.9
20260506173043 73 0.0 0.0 0.00 0.00 0.00 34 1003.9
20260506172126 73 0.0 0.0 0.00 0.00 0.00 34 1003.9
20260506171045 73 0.0 0.0 0.00 0.00 0.00 34 1003.9
20260506170019 73 0.0 0.0 0.00 0.00 0.00 33 1003.9
20260506165016 74 0.0 0.0 0.00 0.00 0.00 33 1003.9
20260506164038 74 0.0 0.0 0.00 0.00 0.00 33 1003.9
20260506163045 74 0.0 0.0 0.00 0.00 0.00 33 1003.9
20260506162059 75 0.0 0.0 0.00 0.00 0.00 33 1003.9
20260506161018 75 0.0 0.0 0.00 0.00 0.00 33 1003.9
20260506160045 75 0.0 0.0 0.00 0.00 0.00 32 1003.9
20260506155039 76 68 1.7 1.7 0.00 0.00 0.00 32 1003.9
20260506154035 76 248 1.7 1.7 0.00 0.00 0.00 32 1003.9
20260506153038 76 225 1.7 1.7 0.00 0.00 0.00 32 1003.9
20260506152035 76 202 1.7 1.7 0.00 0.00 0.00 32 1003.9
20260506151040 76 257 1.7 2.6 0.00 0.00 0.00 32 1003.9
20260506150047 77 248 0.9 1.7 0.00 0.00 0.00 32 1003.9
20260506145025 77 225 0.9 0.9 0.00 0.00 0.00 32 1003.9
20260506144023 77 90 1.7 1.7 0.00 0.00 0.00 31 1003.9
20260506143033 77 223 0.9 1.7 0.00 0.00 0.00 32 1003.9
20260506142121 77 232 1.7 1.7 0.00 0.00 0.00 32 1003.9
20260506141102 77 235 0.9 3.5 0.00 0.00 0.00 32 1003.9
20260506140017 76 234 1.7 3.5 0.00 0.00 0.00 32 1003.9
20260506135039 76 225 1.7 2.6 0.00 0.00 0.00 32 1003.9
20260506134045 77 206 2.6 2.6 0.00 0.00 0.00 32 1003.9
20260506133032 78 264 1.7 2.6 0.00 0.00 0.00 32 1003.9
20260506132019 77 204 0.9 2.6 0.00 0.00 0.00 32 1003.9
20260506131022 77 241 0.9 1.7 0.00 0.00 0.00 33 1003.9
20260506130018 77 203 0.9 1.7 0.00 0.00 0.00 33 1003.9
20260506125042 76 212 2.6 3.5 0.00 0.00 0.00 33 1003.9
20260506124025 75 211 1.7 1.7 0.00 0.00 0.00 33 1003.9
20260506123015 74 210 1.7 1.7 0.00 0.00 0.00 33 1003.9
20260506122104 75 221 0.9 1.7 0.00 0.00 0.00 33 1003.9
20260506121057 75 226 0.9 1.7 0.00 0.00 0.00 33 1003.9
20260506120026 75 196 1.7 2.6 0.00 0.00 0.00 32 1003.9
20260506115044 76 210 0.9 1.7 0.00 0.00 0.00 32 1003.9
20260506114026 76 188 1.7 2.6 0.00 0.00 0.00 32 1003.9
20260506113107 76 205 1.7 1.7 0.00 0.00 0.00 32 1003.9
20260506112023 76 217 1.7 2.6 0.00 0.00 0.00 33 1003.9
20260506111018 76 204 1.7 1.7 0.00 0.00 0.00 32 1003.9
20260506110053 77 241 1.7 2.6 0.00 0.00 0.00 33 1003.9
20260506105027 76 282 1.7 2.6 0.00 0.00 0.00 33 1003.9
20260506104031 76 203 2.6 2.6 0.00 0.00 0.00 33 1003.9
20260506103031 75 235 1.7 1.7 0.00 0.00 0.00 33 1003.9
20260506102045 75 203 0.9 1.7 0.00 0.00 0.00 33 1003.9
20260506101045 74 225 1.7 1.7 0.00 0.00 0.00 33 1003.9
20260506100035 74 240 1.7 1.7 0.00 0.00 0.00 33 1003.9
20260506095045 74 203 0.9 1.7 0.00 0.00 0.00 33 1003.9
20260506094045 74 266 0.9 1.7 0.00 0.00 0.00 33 1003.9
20260506093049 73 220 2.6 3.5 0.00 0.00 0.00 33 1003.9
20260506092101 73 203 0.9 1.7 0.00 0.00 0.00 33 1003.9
20260506091100 73 0.0 0.0 0.00 0.00 0.00 34 1003.9
20260506090016 73 249 1.7 2.6 0.00 0.00 0.00 35 1003.9
20260506085045 73 0.0 0.0 0.00 0.00 0.00 35 1003.9
20260506084016 73 0.0 0.0 0.00 0.00 0.00 35 1003.9
20260506083045 72 0.0 0.0 0.00 0.00 0.00 36 1003.9
20260506082019 71 0.0 0.0 0.00 0.00 0.00 37 1003.9
20260506081045 71 0.0 0.0 0.00 0.00 0.00 37 1003.9
20260506073106 70 0.0 0.0 0.00 0.00 0.00 39 1003.9
20260506072040 69 0.0 0.0 0.00 0.00 0.00 40 1003.9
20260506071036 68 0.0 0.0 0.00 0.00 0.00 41 1003.9
20260506062023 64 0.0 0.0 0.00 0.00 0.00 46 1004.9
20260506061039 64 0.0 0.0 0.00 0.00 0.00 47 1004.9
20260506051107 60 0.0 0.0 0.00 0.00 0.00 54 1004.9
20260506045019 59 0.0 0.0 0.00 0.00 0.00 54 1004.4
20260506044055 0 0.0 0.0 0.00 0.00 0.00 1004.9
20260506043045 0 0.0 0.0 0.00 0.00 0.00 1004.9
20260506042125 0 0.0 0.0 0.00 0.00 0.00 1004.9
20260506041045 0 0.0 0.0 0.00 0.00 0.00 1004.9
20260506040016 58 0.0 0.0 0.00 0.00 0.00 52 1004.9
20260506035042 58 0.0 0.0 0.00 0.00 0.00 51 1004.9
20260506034039 57 0.0 0.0 0.00 0.00 0.00 51 1004.9
20260506033029 57 0.0 0.0 0.00 0.00 0.00 50 1004.9
20260506032017 57 0.0 0.0 0.00 0.00 0.00 49 1004.9
20260506031038 0 0.0 0.0 0.00 0.00 0.00 1004.9
20260506030043 57 0.0 0.0 0.00 0.00 0.00 48 1004.9
20260506025048 0 0.0 0.0 0.00 0.00 0.00 1004.9
20260506024021 0 0.0 0.0 0.00 0.00 0.00 1004.9
20260506023025 57 0.0 0.0 0.00 0.00 0.00 47 1005.9
20260506022102 57 0.0 0.0 0.00 0.00 0.00 47 1005.9
20260506021033 58 0.0 0.0 0.00 0.00 0.00 47 1005.9
20260506020045 58 0.0 0.0 0.00 0.00 0.00 46 1005.9
20260506015015 58 0.0 0.0 0.00 0.00 0.00 46 1005.9
20260506014031 58 0.0 0.0 0.00 0.00 0.00 46 1005.9
20260506013019 58 0.0 0.0 0.00 0.00 0.00 46 1005.9
20260506012027 59 0.0 0.0 0.00 0.00 0.00 46 1005.9
20260506011049 59 0.0 0.0 0.00 0.00 0.00 46 1005.9
20260506010040 59 0.0 0.0 0.00 0.00 0.00 46 1005.9
20260506005040 59 0.0 0.0 0.00 0.00 0.00 46 1005.9
20260506004027 60 0.0 0.0 0.00 0.00 0.00 46 1005.9
20260506003037 60 263 0.0 0.9 0.00 0.00 0.00 46 1005.9
20260506002017 60 0.0 0.0 0.00 0.00 0.00 47 1005.4
20260506001025 61 23 0.0 0.9 0.00 0.00 0.00 46 1004.9
20260506000033 61 0.0 0.0 0.00 0.00 0.00 47 1004.9
20260505235027 62 23 0.0 0.9 0.00 0.00 0.00 47 1004.9
20260505234043 62 0.0 0.0 0.00 0.00 0.00 47 1004.9
20260505233020 62 0.0 0.0 0.00 0.00 0.00 46 1004.9
20260505232036 63 315 0.0 0.9 0.00 0.00 0.00 46 1004.9
20260505231022 63 0.0 0.0 0.00 0.00 0.00 46 1004.9
20260505230029 63 338 0.0 0.9 0.00 0.00 0.00 45 1004.9
20260505225045 64 0.0 0.0 0.00 0.00 0.00 45 1004.9
20260505224019 64 0.0 0.0 0.00 0.00 0.00 44 1004.9
20260505223037 64 338 0.0 0.9 0.00 0.00 0.00 44 1004.9
20260505222017 65 338 0.0 0.9 0.00 0.00 0.00 43 1005.3
20260505221048 65 315 0.0 0.9 0.00 0.00 0.00 43 1005.9
20260505220019 66 0.0 0.0 0.00 0.00 0.00 43 1004.9
20260505215031 66 338 0.9 0.9 0.00 0.00 0.00 42 1004.9
20260505214102 67 0.0 0.0 0.00 0.00 0.00 41 1004.9
20260505213045 67 0.0 0.0 0.00 0.00 0.00 40 1004.9
20260505212057 67 0.0 0.0 0.00 0.00 0.00 40 1004.9
20260505211023 67 0.0 0.0 0.00 0.00 0.00 39 1004.9
20260505210045 68 315 0.0 0.9 0.00 0.00 0.00 38 1004.9
20260505205045 68 315 0.0 1.7 0.00 0.00 0.00 37 1004.9
20260505204031 68 0.0 0.0 0.00 0.00 0.00 35 1004.9
20260505203017 69 23 0.0 0.9 0.00 0.00 0.00 35 1004.9
20260505202028 69 349 0.9 0.9 0.00 0.00 0.00 33 1004.9
20260505201037 70 330 0.9 0.9 0.00 0.00 0.00 31 1004.9
20260505200024 70 333 0.9 1.7 0.00 0.00 0.00 26 1004.9
20260505195102 71 45 1.7 2.6 0.00 0.00 0.00 21 1004.4
20260505194044 71 339 0.9 0.9 0.00 0.00 0.00 12 1003.9
20260505193018 72 0.0 0.0 0.00 0.00 0.00 11 1003.9
20260505192045 72 0.0 0.0 0.00 0.00 0.00 11 1003.9
20260505191107 72 0.0 0.0 0.00 0.00 0.00 11 1003.9
20260505190015 73 0.0 0.0 0.00 0.00 0.00 11 1003.9
20260505185031 73 0.0 0.0 0.00 0.00 0.00 16 1003.9
20260505184045 74 0.0 0.0 0.00 0.00 0.00 17 1003.9
20260505183045 74 0.0 0.0 0.00 0.00 0.00 14 1003.9